GSAT0104 (GALILEO-FM4)

Last updated on Feb. 23, 2020, 4:52 a.m. UTC

1 38858U 12055B   20052.78492597 -.00000030  00000-0  00000-0 0  9999
2 38858  54.9620 164.9924 0001479 256.9762 102.9724  1.70473670 45822
UTC
Height (km)
Latitude
Longitude
Inclination
Orbital Period
UTC large
Height (km)
Speed (km/s)
/
Latitude / Longitude
Inclination (degrees)
Orbital Period (minutes)
Azimuth
Elevation
Range (km)
Doppler Factor
iOS Compass Heading
iOS Angle

Next 30 passes for location: Hong Kong

Rise time Rise Azimuth (degrees) Set time Set Azimuth (degrees) Duration Max altitude (degrees)

No matching passes for this satellites